Location: Huesca
(42.1318°N, 0.4078°W)
Time: 04:33:08
(UTC+02:00)

Tiangong - Pass Details

Date: 15 June 2024
Orbit: 374 x 377 km, 41.5° (Epoch: 18 July)

Event Time Altitude Azimuth Distance (km) Brightness Sun altitude
Rises 23:46:20 0° 269° (W) 2,244 2.2 -17.4°
Reaches altitude 10° 23:49:36 10° 232° (SW) 1,384 0.6 -17.7°
Enters shadow 23:49:45 10° 230° (SW) 1,366 0.6 -17.7°
